Sections

Log récent du chat

Temps Position Nom Message
24. mar 2019 14:37:29 9  Super Greg #1 ;-)
24. mar 2019 14:37:27 1.423  fat nutty lmao
24. mar 2019 14:37:15 18  Preferred User not nice
24. mar 2019 14:26:59 18  Preferred User thats bs
24. mar 2019 14:01:58 18  Preferred User coward
24. mar 2019 13:54:47 18  Preferred User that was bs
24. mar 2019 13:50:53 18  Preferred User nice lag
24. mar 2019 12:12:23 52  Hellsflare gg peace
24. mar 2019 12:12:11 52  Hellsflare lol
24. mar 2019 11:52:29 52  Hellsflare lol'
24. mar 2019 10:32:24 128  MappleLeaf GUNS
24. mar 2019 10:04:13 177  brockb bye
24. mar 2019 09:59:03 177  brockb oh wtf yogi was a person...
24. mar 2019 09:39:26 51  Dicetheone ^^
24. mar 2019 09:32:34 177  brockb gun
24. mar 2019 09:23:32 51  Dicetheone ^^
24. mar 2019 09:23:27 79  Latvian guns\
24. mar 2019 02:16:56 109  Hammer how do we change the map??
24. mar 2019 02:16:54 578  Obvus2 sorry bro this is 24/7 office
24. mar 2019 02:16:43 109  Hammer change map
24. mar 2019 02:16:32 109  Hammer vote mapchange
24. mar 2019 02:16:09 109  Hammer MAPCHANGE
24. mar 2019 01:48:32 333  HellsGamers -hg- BADA BING guns
24. mar 2019 01:46:58 333  HellsGamers -hg- BADA BING guns
24. mar 2019 01:34:08 333  HellsGamers -hg- BADA BING guns
24. mar 2019 00:28:37 29  Zomboxeye !shop
24. mar 2019 00:28:13 29  Zomboxeye !shop
23. mar 2019 23:53:24 778  Pulpitooo !store
23. mar 2019 23:52:58 778  Pulpitooo !store
23. mar 2019 23:52:51 778  Pulpitooo !STORE
23. mar 2019 23:30:43 669  Emergency !guns
23. mar 2019 22:54:22 15  SHADY BANANAS =) TRASH
23. mar 2019 21:54:47 15  SHADY BANANAS =) I KNOW
23. mar 2019 21:54:43 1.423  fat nutty i aint lyinh
23. mar 2019 21:54:36 1.423  fat nutty this had furry yiff on it
23. mar 2019 21:42:22 1.423  fat nutty you dip
23. mar 2019 21:42:18 1.423  fat nutty dont spray furry yiff
23. mar 2019 21:42:10 1.423  fat nutty Boxy fuck you
23. mar 2019 21:40:11 1.423  fat nutty fuck i made a spelling error
23. mar 2019 21:39:53 15  SHADY BANANAS =) OK THANKS
23. mar 2019 21:39:44 1.423  fat nutty its gotta be lowercase to wrok
23. mar 2019 21:39:24 15  SHADY BANANAS =) GUNS
23. mar 2019 21:38:14 71  Boxy gg
23. mar 2019 21:38:03 15  SHADY BANANAS =) GG
23. mar 2019 21:37:52 71  Boxy gg lmao
23. mar 2019 20:43:49 831  xyzzy !guns
23. mar 2019 20:43:32 831  xyzzy !gun
23. mar 2019 20:43:28 831  xyzzy !guns
23. mar 2019 20:31:32 1.423  fat nutty looks like its bot wars
23. mar 2019 20:07:00 1.423  fat nutty fuck im an idiot
23. mar 2019 20:06:53 28  the penguin its guns
23. mar 2019 20:06:48 1.423  fat nutty that was a fucking lie
23. mar 2019 20:06:43 1.423  fat nutty gun
23. mar 2019 20:04:33 28  the penguin wish the old minigames server was still around
23. mar 2019 20:04:10 277  HellsGamers HG | 211^ 叔父 BOSCH [S] [CE] So remember, visit: hellsgamers.com if you are interested in joining the community, or if you are interested in joining clan
23. mar 2019 20:04:08 1.423  fat nutty aight
23. mar 2019 20:04:01 795  HellsGamers [850]Clit_Commander420{jew} ns
23. mar 2019 20:03:27 1.423  fat nutty I DIDNT MURDER THEM
23. mar 2019 20:03:20 28  the penguin maybe a nice 35hp knife server
23. mar 2019 20:03:16 277  HellsGamers HG | 211^ 叔父 BOSCH [S] [CE] and we are also expanding, and dont think we are a new clan, HG was established in 2005, so we have been around for a LONG time
23. mar 2019 20:03:11 795  HellsGamers [850]Clit_Commander420{jew} wtf
23. mar 2019 20:03:09 1.423  fat nutty knifes are fun
23. mar 2019 20:02:57 1.423  fat nutty i kinda agree
23. mar 2019 20:02:48 28  the penguin need a knife-only css server :>
23. mar 2019 20:00:36 28  the penguin o/
23. mar 2019 20:00:31 277  HellsGamers HG | 211^ 叔父 BOSCH [S] [CE] im going to log off
23. mar 2019 20:00:27 277  HellsGamers HG | 211^ 叔父 BOSCH [S] [CE] okay im laggin like crazy for some reason
23. mar 2019 19:59:53 277  HellsGamers HG | 211^ 叔父 BOSCH [S] [CE] yup
23. mar 2019 19:59:47 277  HellsGamers HG | 211^ 叔父 BOSCH [S] [CE] and pay $10 for vip or $15 for gold i think
23. mar 2019 19:59:44 28  the penguin i bought sticky nades forever ago, but arent they only active with vip?
23. mar 2019 19:59:23 277  HellsGamers HG | 211^ 叔父 BOSCH [S] [CE] or you can go to hellsgamers.com
23. mar 2019 19:59:12 277  HellsGamers HG | 211^ 叔父 BOSCH [S] [CE] then all you need is enough credits built up from playing the game to buy sticky nades
23. mar 2019 19:59:10 795  HellsGamers [850]Clit_Commander420{jew} lol
23. mar 2019 19:58:50 277  HellsGamers HG | 211^ 叔父 BOSCH [S] [CE] get top 20 and you get free VIP
23. mar 2019 19:58:33 28  the penguin but not vip...
23. mar 2019 19:58:30 28  the penguin wish i still had sticky nades...
23. mar 2019 19:58:06 277  HellsGamers HG | 211^ 叔父 BOSCH [S] [CE] YAY!
23. mar 2019 19:58:03 28  the penguin lel
23. mar 2019 19:56:37 277  HellsGamers HG | 211^ 叔父 BOSCH [S] [CE] that xplains it all lol
23. mar 2019 19:56:32 28  the penguin lol
23. mar 2019 19:56:28 277  HellsGamers HG | 211^ 叔父 BOSCH [S] [CE] for boko haram
23. mar 2019 19:56:21 277  HellsGamers HG | 211^ 叔父 BOSCH [S] [CE] hes a nigerian terrorist
23. mar 2019 19:56:12 28  the penguin :>
23. mar 2019 19:55:59 28  the penguin but is it racist that the guy with an afro is a terrorist?
23. mar 2019 19:55:38 277  HellsGamers HG | 211^ 叔父 BOSCH [S] [CE] DONT SHOOT THE GUY WITH AN AFRO ITS RACIST LOL!!!
23. mar 2019 19:55:27 277  HellsGamers HG | 211^ 叔父 BOSCH [S] [CE] LOLZZZ
23. mar 2019 19:55:14 28  the penguin your skin looks too much like a ct so i keep trying to shoot you :x
23. mar 2019 19:55:01 28  the penguin lol 211
23. mar 2019 19:54:03 277  HellsGamers HG | 211^ 叔父 BOSCH [S] [CE] !smoke
23. mar 2019 19:52:12 277  HellsGamers HG | 211^ 叔父 BOSCH [S] [CE] hows everyone doing
23. mar 2019 19:52:08 277  HellsGamers HG | 211^ 叔父 BOSCH [S] [CE] lolzzz
23. mar 2019 19:52:05 277  HellsGamers HG | 211^ 叔父 BOSCH [S] [CE] finally!
23. mar 2019 19:24:42 707  Skwootch ns
23. mar 2019 19:19:58 302  ATE | Giorno Giovanna !guns
23. mar 2019 19:12:37 6  Bastardizer fucking respawn
23. mar 2019 18:54:42 1.423  fat nutty ayy
23. mar 2019 17:51:34 251  IrDewey lo
23. mar 2019 17:51:30 1.463  abrahamjoestar14 hggrwazawwwwwwwwwwwwwwwwwwwwwwwwwwwww{k{kñwwwwwwwwwwwwwwwwwwwwwwwwwwwwwwwwwwwwwwwwwwwwwwwwwwwwwwwwwwwwwwwwwwww
23. mar 2019 17:28:33 251  IrDewey tired of your knife? lol

Admin Options: